Reflectivity
-17 -20 -20 -20 -20 -20 -20 -20 -20 -20 -20 -20 -20 14 5 -20 -20 -20 -20 -20 -20 -20 -20 -20 -20 -7 -6 -19 -9 -20 -20 -20 -20
14 -20 -20 -20 -20 -20 -18 -16 -20 -20 -20 -20 -20 -20 1 -17 -8 -20 -20 -20 -20 -7 3 -18 -20 -20 -5 2 -20 -20 -20 -20 -20
-6 8 -13 -7 -20 -20 -9 -1 7 8 0 -19 -20 -20 0 -6 -13 -20 -20 -20 -20 -9 8 -20 -7 -20 -20 -20 -20 -20 -20 -20 -20
-20 -13 -4 -7 3 -1 -20 8 8 16 12 14 -20 1 -0 -20 -20 -20 -20 -20 -20 -19 8 -3 -18 9 -20 -20 -20 -20 -20 -20 -20
-20 -20 -20 -20 -18 -20 -20 -20 -20 -20 -20 -20 -20 -20 -20 -20 -20 -20 -20 -20 -20 -20 -20 -17 -5 -20 3 -20 -20 -20 -20 -20 -20
-20 -20 -20 -20 -20 -20 -20 -20 -20 -20 -20 -20 -20 -20 -20 -20 -20 -20 -20 -20 -20 -20 -20 -20 -10 -18 -20 10 -16 -20 -20 -20 -20
-20 -20 -20 -20 -20 -20 -20 -20 -20 -20 -20 -20 -20 -20 -20 -20 -20 -20 -20 -20 -20 -20 -20 -20 -20 -20 -20 -20 -5 -14 -20 -20 -20
-20 -20 -20 -20 -20 -20 -20 -20 -20 -20 -20 -20 -20 -20 -20 -20 -20 -20 -20 -20 -20 -20 -20 -20 -20 -20 -20 -20 -20 -0 -3 -20 -20
-20 -20 -20 -20 -20 -20 -20 -20 -20 -20 -20 -20 -20 -20 -20 -20 -20 -20 -20 -20 -20 -20 -20 -20 -20 -20 -20 -20 -20 -20 -20 -6 -20
-20 -20 -20 -20 -20 -20 -20 -20 -20 -20 -20 -20 -20 -20 -20 -20 -20 -20 -20 -20 -20 -20 -20 -20 -20 -20 -20 -20 -20 -20 -20 -9 -3
-20 -20 -20 -20 -20 -20 -20 -20 -20 -20 -20 -20 -20 -20 -20 -20 -20 -20 -20 -20 -20 -20 -20 -20 -20 -20 -20 -20 -20 -20 -20 -20 4
-20 -20 -20 -20 -20 -20 -20 -20 -20 -20 -20 -20 -20 -20 -20 -20 -20 -20 -20 -20 -20 -20 -20 -20 -20 -20 -20 -20 -20 -20 -20 -20 -20
-20 -20 -20 -20 -20 -20 -20 -20 -20 -20 -20 -20 -20 -20 -20 -20 -20 -20 -20 -20 -20 -20 -20 -20 -20 -20 -20 -20 -20 -20 -20 -20 -20
-20 -20 -20 -20 -20 -20 -20 -20 -20 -20 -20 -20 -20 -20 -20 -20 -20 -20 -20 -20 -20 -20 -20 -20 -20 -20 -20 -20 -20 13 19 -8 -20
-20 -20 -20 -20 -20 -20 -20 -20 -20 -20 -20 -20 -20 -20 -20 -20 -20 -20 -20 -20 -20 -20 -20 -20 -20 -20 -20 -20 -20 -20 -20 -9 19
-20 -20 -20 -20 -20 -20 -20 -20 -20 -20 -20 -20 -20 -20 -20 -20 -20 -14 -20 -20 -20 -20 -20 5 -20 -16 6 -20 -18 13 11 15 24
-20 -20 -20 -20 -20 -20 -20 -20 -20 -20 -20 -20 -20 -20 -20 -20 -20 -20 -20 -20 -20 -20 -20 5 9 7 25 -20 -5 9 15 22 10
-20 -20 -20 -20 -20 -20 -20 -20 -20 -20 -20 -20 -20 -20 -20 -20 -20 -20 -20 -20 -20 -20 -20 -20 -20 -20 -20 -20 -20 -20 7 21 22
-20 -20 -20 -20 -20 -20 -20 -20 -20 -20 -20 -20 -20 -20 -20 -20 -20 -20 -20 -20 -20 -20 -20 -20 -20 -20 -20 -20 -1 -14 -20 -20 13
-20 -20 -20 -20 -20 -20 -20 -20 -20 -20 -20 -20 -20 -20 -20 -20 -20 -20 -20 -20 -20 -20 -20 -20 -20 -20 -20 -20 9 11 16 20 23
Wind_Speed
6 5 4 2 2 4 5 5 7 8 9 10 11 11 5 5 9 8 10 8 8 8 11 11 12 11 10 11 12 11 12 11 11
4 9 5 2 2 4 5 6 7 8 8 10 11 12 10 8 12 9 10 10 10 12 13 15 12 13 15 15 15 14 13 13 13
6 5 5 2 3 4 7 8 10 9 9 9 10 11 11 8 12 11 9 10 12 16 16 16 15 14 15 16 16 16 15 15 14
9 4 3 3 4 5 10 10 10 11 10 10 10 10 10 12 10 10 8 9 12 15 18 17 18 17 17 17 17 17 17 16 16
0 3 1 6 9 8 9 12 12 12 12 11 11 9 10 14 11 9 9 11 16 18 18 20 19 20 19 19 19 19 19 19 18
4 2 5 7 9 11 11 12 13 12 12 14 11 8 9 10 8 7 9 14 18 19 20 21 21 21 22 19 20 21 21 21 21
5 6 6 10 11 12 13 14 14 12 10 6 11 7 9 8 9 8 10 17 20 21 22 22 23 23 24 23 22 23 23 23 23
4 4 5 6 7 7 7 7 7 9 8 9 9 10 10 8 8 11 12 19 22 23 23 24 24 25 26 26 26 24 24 24 23
5 4 6 6 5 7 7 6 9 10 12 13 13 13 11 9 9 11 13 19 23 24 24 25 26 27 27 28 28 26 26 26 26
5 5 5 6 6 7 7 8 8 10 11 11 13 14 14 15 10 9 12 17 23 25 26 26 27 28 29 30 28 28 28 28 28
5 6 6 6 6 6 7 8 9 9 10 12 13 14 14 15 15 12 13 14 21 25 27 27 28 28 29 31 29 28 29 29 29
6 5 6 6 6 9 8 9 9 9 9 12 12 12 15 14 16 14 12 13 16 24 28 28 29 30 31 31 31 30 30 31 31
6 5 5 7 7 7 7 8 9 9 10 10 11 11 13 16 16 14 13 12 12 11 23 27 28 30 31 32 33 31 31 31 32
4 5 6 7 5 6 7 7 8 9 9 9 11 11 12 14 13 15 16 16 14 11 15 15 22 26 30 31 33 33 32 32 32
8 7 8 8 7 8 9 11 10 11 10 11 12 12 12 12 12 13 12 12 14 15 16 14 12 20 26 29 30 31 31 31 33
10 7 8 9 8 9 10 9 11 9 10 11 12 12 15 11 13 9 13 16 17 17 15 11 9 9 17 22 26 28 30 32 31
9 9 7 9 7 9 10 11 10 10 11 12 13 10 11 9 15 15 13 18 15 14 13 14 16 15 12 13 19 21 27 30 32
9 9 8 8 8 8 9 10 12 10 10 13 10 11 10 14 13 16 14 16 14 15 16 19 19 18 15 14 16 21 25 30 31
10 9 9 8 7 8 9 9 10 10 10 9 9 13 15 14 15 8 15 15 17 19 14 16 18 19 17 16 15 19 24 30 32
9 9 8 8 7 8 9 10 10 8 9 10 10 12 11 14 14 18 12 14 14 15 15 16 15 19 18 14 16 24 25 27 30
Wind_Direction
165 153 138 114 12 338 330 329 325 318 310 310 306 299 292 263 283 281 283 269 275 263 266 260 260 266 263 262 254 260 262 253 254
234 163 160 113 322 327 311 300 296 298 302 301 295 295 302 282 283 271 268 270 268 268 264 270 252 263 265 262 263 254 256 252 250
280 177 148 182 268 304 312 283 287 279 280 288 294 298 307 279 275 271 268 271 275 267 266 266 260 255 260 260 258 256 250 250 248
32 131 176 233 278 301 310 303 300 295 288 295 296 292 281 283 274 274 267 245 258 267 265 258 267 255 249 255 259 258 253 249 246
20 316 167 319 307 302 298 298 293 292 292 288 281 279 275 262 261 266 260 256 260 264 265 265 258 264 257 250 252 252 254 248 247
260 352 302 286 285 285 284 282 282 289 280 256 252 262 268 269 265 263 251 252 255 261 261 262 264 259 263 255 246 250 248 248 246
311 304 273 269 270 273 272 275 279 275 271 273 213 247 272 275 272 267 257 255 255 257 256 256 257 259 258 260 258 247 247 247 245
262 276 265 271 225 274 265 278 268 285 285 284 279 278 278 275 272 266 251 254 258 261 260 257 255 254 254 255 256 254 245 243 244
279 283 289 289 291 297 295 292 292 286 278 278 280 279 274 271 272 271 236 245 254 257 258 258 256 254 253 252 253 252 249 241 237
296 296 307 302 300 297 297 294 292 288 287 283 278 276 273 272 269 269 248 232 246 254 254 253 253 253 252 251 250 249 250 245 239
312 303 292 297 296 299 298 297 297 292 291 289 283 280 279 274 273 272 272 239 240 248 253 253 252 252 253 252 251 249 249 249 247
293 296 303 310 317 313 311 309 302 295 295 294 297 295 291 285 283 276 271 273 238 239 251 256 251 249 248 249 249 248 245 244 244
313 315 326 337 329 325 318 322 313 311 311 311 310 306 298 290 285 281 279 274 274 253 239 249 258 259 255 253 252 249 247 245 245
10 13 7 354 352 348 341 330 326 317 310 304 301 300 291 288 287 280 282 280 276 273 274 251 247 253 259 260 259 257 253 249 246
44 39 26 11 9 2 352 343 335 322 323 319 308 302 291 288 288 290 292 289 287 284 279 278 268 239 249 257 262 264 262 258 255
35 27 20 10 7 359 348 341 334 329 330 313 319 305 277 300 305 348 313 296 288 288 285 286 287 281 257 251 258 261 263 264 260
34 22 14 8 353 353 349 348 337 330 335 326 315 322 303 310 333 308 295 310 296 295 297 283 289 290 285 283 272 263 263 267 269
27 21 10 5 357 354 348 348 341 331 328 338 318 320 317 313 307 313 290 327 314 303 309 313 307 291 281 272 270 259 261 265 268
21 15 9 6 356 357 349 349 342 336 332 328 327 314 312 312 312 313 316 304 321 305 304 304 302 297 279 280 278 265 267 273 278
17 10 7 6 3 358 350 344 343 336 332 332 325 320 316 318 313 310 314 298 302 302 298 285 298 310 294 291 314 323 325 314 305